Regional Weather Roundup
Issued by NWS

Home | Current Version | Previous Version | Graphics & Text | Print | Product List | Glossary On
Versions: 1 2 3 4 5 6 7 8 9 10 11 12 13 14 15 16 17 18 19 20 21 22 23 24 25 26 27 28 29 30 31 32 33 34 35 36 37 38 39 40 41 42 43 44 45 46 47 48 49 50
000
ASUS43 KFSD 251202
RWRSD

WEATHER ROUNDUP FOR SOUTH DAKOTA
NATIONAL WEATHER SERVICE SIOUX FALLS SD
700 AM CDT FRI MAY 25 2018

NOTE: "FAIR" INDICATES FEW OR NO CLOUDS BELOW 12,000 FEET WITH NO
SIGNIFICANT WEATHER AND/OR OBSTRUCTIONS TO VISIBILITY.


SDZ001>005-009-010-012>017-251300-
NORTHWEST AND NORTH CENTRAL SOUTH DAKOTA

CITY           SKY/WX    TMP DP  RH WIND       PRES   REMARKS
BUFFALO          N/A     58  50  75 W10       29.84R
FAITH            N/A     65  57  75 SW12      29.86S
MOBRIDGE       CLEAR     64  57  78 CALM      29.79R
$$

SDZ012>016-024>037-041>051-057-063-072>074-251300-
SOUTHWEST AND SOUTH CENTRAL SOUTH DAKOTA

CITY           SKY/WX    TMP DP  RH WIND       PRES   REMARKS
RAPID CTY ARPT CLEAR     59  52  77 W7        29.92R
PIERRE         PTCLDY    64  59  83 W9        29.83R
CUSTER         CLEAR     53  42  66 NW3       30.06S
ELLSWORTH AFB  CLEAR     59  55  88 NW6       29.92R
PHILIP         PTCLDY    57  55  93 S3        29.87S
PINE RIDGE     CLEAR     53  51  93 CALM      29.95R
SPEARFISH      FAIR      55  46  71 CALM      29.99R
WINNER         FAIR      66  58  75 W7        29.85S
$$

SDZ004>011-016>023-039-040-251300-
NORTHEAST SOUTH DAKOTA

CITY           SKY/WX    TMP DP  RH WIND       PRES   REMARKS
ABERDEEN       CLEAR     60  56  86 S5        29.79R
WATERTOWN      SUNNY     62  60  93 S5        29.81R
BROOKINGS      SUNNY     61  58  90 SE5       29.83S
SISSETON         N/A     68  60  75 SW6       29.76R
$$

SDZ017-020-022-023-036>040-048>070-251300-
SOUTHEAST SOUTH DAKOTA

CITY           SKY/WX    TMP DP  RH WIND       PRES   REMARKS
SIOUX FALLS    MOSUNNY   65  61  87 CALM      29.82S
HURON          CLEAR     62  60  93 CALM      29.81R
CHAMBERLAIN    CLEAR     61  61 100 CALM      29.85R
MITCHELL       CLEAR     65  59  81 W6        29.83R
YANKTON        CLEAR     63  60  90 CALM      29.83R
$$

ABBREVIATIONS USED IN REMARKS
   TC - TEMPERATURE IN CELSIUS
  WCI - WIND CHILL INDEX
   HX - HEAT INDEX
  VSB - VISIBILITY





USA.gov is the U.S. government's official web portal to all federal, state and local government web resources and services.